Orbital Elements at Epoch 2459200.5 (2020-Dec-17.0) TDB
Reference: JPL 11 (heliocentric ecliptic J2000)
Element | Value | Uncertainty (1-sigma) | Units |
e | .1474025740429617 | 5.7168e-08 | |
a | 3.037540707055802 | 2.6644e-08 | au |
q | 2.589799388075499 | 1.8272e-07 | au |
i | 4.45035265299822 | 6.3529e-06 | deg |
node | 250.284946969847 | 7.3709e-05 | deg |
peri | 2.502424109004694 | 7.844e-05 | deg |
M | 34.99994373085281 | 2.1729e-05 | deg |
tp | 2459012.504942140364 (2020-Jun-12.00494214) | 0.00011761 | TDB |
period | 1933.666561006777 5.29 | 2.5442e-05 6.966e-08 | d yr |
n | .1861748076217254 | 2.4496e-09 | deg/d |
Q | 3.485282026036105 | 3.0572e-08 | au |
|
| | Orbit Determination Parameters
Additional Information
|